Погода в Первомайском

Россия / Саратовская область     52°13′20″N   44°12′31″E
темп.,
°C
ветер,
м/с
пор.,
м/с
влажн.,
%
обл.,
%
осадки,
мм/ч
давл.,
гПа
погр.,
м
17 октября, вс
вс1701:00+8ююз3857100 0.0 1020192
04:00+8ю3771100 0.1 1019203
07:00+8ю2269100 0.0 101848
10:00+9ююв2462100 0.0 1018162
13:00+11ююв2356100 0.0 1018318
16:00+12ю2357100 0.0 1016109
19:00+10юв0164100 0.0 101511
22:00+10ююв1267100 0.1 101519
18 октября, пн
пн1801:00+9ю3568100 0.0 1014136
04:00+9зюз2468100 0.0 101397
07:00+8зсз247588 0.0 101397
10:00+9сз347320 0.0 1013307
13:00+11зсз45567 0.0 1012992
16:00+11з6752100 0.0 10121371
19:00+7зсз3760100 0.0 1013161
22:00+7зюз4859100 0.0 1013251
19 октября, вт
вт1901:00+7з3865100 0.0 1013336
04:00+6зсз2577100 0.0 1013207
07:00+5зсз2380100 0.0 1013137
10:00+6сз2381100 0.1 1013678
13:00+8ссз3454100 0.1 10131340
16:00+8сз4444100 0.1 10121556
19:00+5сз376199 0.1 1014204
22:00+3ссз487366 0.1 1015296
20 октября, ср
ср2001:00+2зсз489273 0.0 1015288
04:00+1сз588695 0.0 1016428
07:00+1ссз587799 0.1 1017697
10:00+2ссз687170 0.1 1019861
13:00+5сз6852100 0.1 10191742
16:00+4сз785695 0.3 10201449
19:00+2сз476394 0.0 1023706
22:000сз35727 0.0 102491
21 октября, чт
чт2101:00−1з3377100 0.0 102447
04:00−1зюз3570100 0.0 1024115
07:00−2юз4973100 0.0 1023185
10:00+2ююз61255100 0.0 1021383
13:00+3ююз81669100 0.3 1018601
16:00+4юз8176799 0.6 1016632
19:00+6юз81763100 0.0 1015509
22:00+8юз91966100 0.0 1013556